Regional Weather Roundup
Issued by NWS Cleveland, OH

Home | Current Version | Previous Version | Text Only | Print | Product List | Glossary On
Versions: 1 2 3 4 5 6 7 8 9 10 11 12 13 14 15 16 17 18 19 20 21 22 23 24 25 26 27 28 29 30 31 32 33 34 35 36 37 38 39 40 41 42 43 44 45 46 47 48 49 50
000
ASUS41 KCLE 261112
RWRCLE
OHIO REGIONAL WEATHER ROUNDUP
NATIONAL WEATHER SERVICE WILMINGTON, OH
700 AM EDT TUE SEP 26 2017

NOTE: "FAIR" INDICATES FEW OR NO CLOUDS BELOW 12,000 FEET WITH NO
SIGNIFICANT WEATHER AND/OR OBSTRUCTIONS TO VISIBILITY.

OHZ001>008-015>018-024>027-034-035-043-044-261200-
   NORTHWEST OHIO

CITY           SKY/WX    TMP DP  RH WIND       PRES   REMARKS
DEFIANCE       FAIR      62  59  90 CALM      30.00R
FINDLAY        FAIR      67  60  78 S6        30.01R
TOLEDO EXPRESS FAIR      64  63  96 CALM      29.99S
TOLEDO EXEC    FAIR      66  62  87 CALM      30.00S
LIMA           FAIR      63  61  93 CALM      30.02R
$$

OHZ009>014-019>023-028>033-038-089-261200-
   NORTHEAST OHIO

CITY           SKY/WX    TMP DP  RH WIND       PRES   REMARKS
CLE-HOPKINS    FAIR      71  62  73 S3        30.03S
CLE-LAKEFRONT  FAIR      72  61  68 S8        30.00S
CUY CO. ARPT   PTCLDY    66  61  82 SE6       30.03
LORAIN-ELYRIA  FAIR      62  57  83 S3        30.03R
ASHTABULA      FAIR      64  64 100 CALM      30.04S
AKRON-CANTON   FAIR      65  59  81 W3        30.05R
WOOSTER        FOG       55  54  96 CALM      30.05R VSB 1/2
MANSFIELD      FAIR      64  62  93 S5        30.05R
YOUNGSTOWN     FAIR      63  62  97 E3        30.05R
$$

OHZ042-051>053-060>062-070>072-077>081-261200-
  SOUTHWEST OHIO

CITY           SKY/WX    TMP DP  RH WIND       PRES   REMARKS
CINC-COVINGTON FAIR      65  65 100 CALM      30.02S
CINC-LUNKEN    FOG       63  63 100 CALM      30.03R VSB 1/2
HAMILTON       FAIR      58  58 100 CALM      30.04R FOG
DAYTON         FAIR      66  62  87 S5        30.04S
WRIGHT-PAT AFB FAIR      62  62 100 CALM      30.03R
DAYTON GENERAL FAIR      62  60  93 CALM      30.03R
WILMINGTON     FAIR      60  60 100 CALM      30.04R
$$

OHZ036-037-039>041-045>050-054>059-063>069-073>076-082>088-261200-
  CENTRAL AND SOUTHEAST OHIO

CITY           SKY/WX    TMP DP  RH WIND       PRES   REMARKS
COLUMBUS       FAIR      64  63  96 CALM      30.03R
OSU AIRPORT    FAIR      64  64 100 CALM      30.04R
BOLTON FIELD   NOT AVBL
RICKENBACK AFB FAIR      61  61 100 CALM      30.03R
NEWARK         FOG       59  57  93 CALM      30.03S VSB 1/4
MARION         FAIR      61  59  93 S3        30.04R
LANCASTER      FAIR      55  55 100 CALM      30.04R FOG
ZANESVILLE     FAIR      60  58  92 CALM      30.04R
NEW PHILLY     FAIR      59  59 100 CALM      30.05R
$$



USA.gov is the U.S. government's official web portal to all federal, state and local government web resources and services.